STARLINK-1233 (45214 NORAD) Tracking and Keplerian Element Data

This shows tracking and keplerian element data for the satellite.

Feedback or suggestion? Click here.




ElementValue
Catalog45214
NameSTARLINK-1233
Epoch Orbit176
Epoch Day188.91667824
Epoch Year2020
RAAN327.1739
Inclination52.9983
Eccentricity0.0001286
Argument of Perigee89.6965
Mean Anonmoly329.7494
Mean Motion15.05585283
Decay Rate9.657E-05
L11 45214U 20012AN 20188.91667824 .00009657 00000-0 68093-3 0 9999
L22 45214 52.9983 327.1739 0001286 89.6965 329.7494 15.05585283 1760

Live tracking and technical data element details for STARLINK-1233 (NORAD 45214). STARLINK-1233 can be tracked NOW for your location showing map with azimuth and elevation plus other details from your city location.

Track the satellite on the map from your city or location and see movement details for azimuth, elevation, latitude, longitude, range, height, and movement on the map or in text.







IsCatalogInMostPopularTable: catalog: 45214, numindb: 28
Update: records affected: 1



GetName: 45214 STARLINK-1233

Hit Count: updated at: Wed, 08 Jul 2020 04:44:02 GMT